| time (UTC) | temp C | wind direction | speed KPH | gust KPH | rain 1hr cm | rain 24hr cm | rain mn cm | humidity % | barometer mb |
| 20260906171855 | 24 | 41 | 0.0 | 0.0 | 0.00 | 0.00 | 0.00 | 78 | 1016.3 |
| 20260906171349 | 25 | 43 | 0.0 | 0.0 | 0.00 | 0.00 | 0.00 | 78 | 1016.7 |
| 20260906170845 | 25 | 22 | 1.6 | 1.6 | 0.00 | 0.00 | 0.00 | 77 | 1016.5 |
| 20260906170341 | 25 | 118 | 0.0 | 0.0 | 0.00 | 0.00 | 0.00 | 77 | 1016.3 |
| 20260906165837 | 25 | 29 | 0.0 | 0.0 | 0.00 | 0.00 | 0.00 | 77 | 1016.3 |
| 20260906165336 | 25 | 41 | 0.0 | 0.0 | 0.00 | 0.00 | 0.00 | 78 | 1016.3 |
| 20260906164831 | 25 | 58 | 0.0 | 0.0 | 0.00 | 0.00 | 0.00 | 79 | 1016.1 |
| 20260906164330 | 24 | 53 | 0.0 | 0.0 | 0.00 | 0.00 | 0.00 | 81 | 1016.5 |
| 20260906163827 | 24 | 25 | 0.0 | 0.0 | 0.00 | 0.00 | 0.00 | 80 | 1016.4 |
| 20260906163323 | 23 | 38 | 0.0 | 0.0 | 0.00 | 0.00 | 0.00 | 82 | 1016.4 |
| 20260906162820 | 24 | 319 | 0.0 | 0.0 | 0.00 | 0.00 | 0.00 | 80 | 1016.7 |
| 20260906162319 | 24 | 37 | 0.0 | 0.0 | 0.00 | 0.00 | 0.00 | 84 | 1016.8 |
| 20260906161814 | 23 | 26 | 0.0 | 0.0 | 0.00 | 0.00 | 0.00 | 84 | 1016.7 |
| 20260906161314 | 23 | 40 | 0.0 | 0.0 | 0.00 | 0.00 | 0.00 | 82 | 1017.0 |
| 20260906160812 | 23 | 28 | 0.0 | 1.6 | 0.00 | 0.00 | 0.00 | 86 | 1016.9 |
| 20260906160307 | 23 | 24 | 0.0 | 0.0 | 0.00 | 0.00 | 0.00 | 83 | 1016.8 |
| 20260906155804 | 23 | 54 | 0.0 | 0.0 | 0.00 | 0.00 | 0.00 | 85 | 1016.9 |
| 20260906155259 | 23 | 96 | 0.0 | 0.0 | 0.00 | 0.00 | 0.00 | 86 | 1017.0 |
| 20260906154755 | 22 | 10 | 0.0 | 0.0 | 0.00 | 0.00 | 0.00 | 84 | 1016.9 |
| 20260906154250 | 22 | 45 | 0.0 | 0.0 | 0.00 | 0.00 | 0.00 | 88 | 1016.9 |
| 20260906153748 | 22 | 16 | 0.0 | 0.0 | 0.00 | 0.00 | 0.00 | 87 | 1017.1 |
| 20260906153243 | 22 | 358 | 0.0 | 1.6 | 0.00 | 0.00 | 0.00 | 87 | 1017.1 |
| 20260906152738 | 22 | 78 | 0.0 | 0.0 | 0.00 | 0.00 | 0.00 | 91 | 1016.9 |
| 20260906152233 | 22 | 319 | 0.0 | 0.0 | 0.00 | 0.00 | 0.00 | 89 | 1016.9 |
| 20260906151732 | 22 | 109 | 0.0 | 0.0 | 0.00 | 0.00 | 0.00 | 90 | 1016.8 |
| 20260906151228 | 22 | 42 | 0.0 | 0.0 | 0.00 | 0.00 | 0.00 | 92 | 1016.8 |
| 20260906150723 | 21 | 38 | 0.0 | 0.0 | 0.00 | 0.00 | 0.00 | 92 | 1016.7 |
| 20260906150218 | 22 | 33 | 0.0 | 0.0 | 0.00 | 0.00 | 0.00 | 91 | 1017.1 |
| 20260906145717 | 22 | 158 | 0.0 | 0.0 | 0.00 | 0.00 | 0.00 | 90 | 1016.7 |
| 20260906145217 | 21 | 50 | 0.0 | 0.0 | 0.00 | 0.00 | 0.00 | 91 | 1016.8 |
| 20260906144712 | 21 | 52 | 0.0 | 0.0 | 0.00 | 0.00 | 0.00 | 93 | 1016.7 |
| 20260906144207 | 21 | 58 | 0.0 | 0.0 | 0.00 | 0.00 | 0.00 | 93 | 1016.8 |
| 20260906143706 | 21 | 76 | 0.0 | 0.0 | 0.00 | 0.00 | 0.00 | 95 | 1016.7 |
| 20260906143204 | 21 | 28 | 0.0 | 0.0 | 0.00 | 0.00 | 0.00 | 95 | 1016.9 |
| 20260906142703 | 21 | 352 | 0.0 | 0.0 | 0.00 | 0.00 | 0.00 | 94 | 1016.9 |
| 20260906142159 | 21 | 16 | 0.0 | 0.0 | 0.00 | 0.00 | 0.00 | 95 | 1016.7 |
| 20260906141657 | 21 | 16 | 0.0 | 0.0 | 0.00 | 0.00 | 0.00 | 96 | 1016.7 |
| 20260906141152 | 20 | 16 | 0.0 | 0.0 | 0.00 | 0.00 | 0.00 | 97 | 1016.6 |
| 20260906140651 | 20 | 16 | 0.0 | 0.0 | 0.00 | 0.00 | 0.00 | 97 | 1016.5 |
| 20260906140146 | 20 | 32 | 0.0 | 0.0 | 0.00 | 0.00 | 0.00 | 97 | 1016.6 |
| 20260906135643 | 20 | 20 | 0.0 | 0.0 | 0.00 | 0.00 | 0.00 | 97 | 1016.2 |
| 20260906135134 | 20 | 20 | 0.0 | 0.0 | 0.00 | 0.00 | 0.00 | 98 | 1016.4 |
| 20260906134630 | 20 | 20 | 0.0 | 0.0 | 0.00 | 0.00 | 0.00 | 97 | 1016.2 |
| 20260906134130 | 20 | 20 | 0.0 | 0.0 | 0.00 | 0.00 | 0.00 | 97 | 1016.2 |
| 20260906133625 | 20 | 19 | 0.0 | 0.0 | 0.00 | 0.00 | 0.00 | 98 | 1016.3 |
| 20260906133120 | 20 | 19 | 0.0 | 0.0 | 0.00 | 0.00 | 0.00 | 98 | 1016.4 |
| 20260906132615 | 20 | 71 | 0.0 | 0.0 | 0.00 | 0.00 | 0.00 | 98 | 1016.2 |
| 20260906132111 | 20 | 72 | 0.0 | 0.0 | 0.00 | 0.00 | 0.00 | 98 | 1016.3 |
| 20260906131606 | 20 | 72 | 0.0 | 0.0 | 0.00 | 0.00 | 0.00 | 98 | 1016.3 |
| 20260906131102 | 20 | 73 | 0.0 | 0.0 | 0.00 | 0.00 | 0.00 | 97 | 1016.2 |
| 20260906130601 | 20 | 52 | 0.0 | 0.0 | 0.00 | 0.00 | 0.00 | 99 | 1016.1 |
| 20260906130057 | 20 | 51 | 0.0 | 0.0 | 0.00 | 0.00 | 0.00 | 98 | 1016.1 |
| 20260906125554 | 20 | 13 | 0.0 | 0.0 | 0.00 | 0.00 | 0.00 | 99 | 1016.1 |
| 20260906125048 | 20 | 13 | 0.0 | 0.0 | 0.00 | 0.00 | 0.00 | 99 | 1016.0 |
| 20260906124544 | 20 | 13 | 0.0 | 0.0 | 0.00 | 0.00 | 0.00 | 99 | 1016.0 |
| 20260906124038 | 20 | 12 | 0.0 | 0.0 | 0.00 | 0.00 | 0.00 | 99 | 1015.8 |
| 20260906123538 | 20 | 12 | 0.0 | 0.0 | 0.00 | 0.00 | 0.00 | 99 | 1015.9 |
| 20260906123033 | 20 | 12 | 0.0 | 0.0 | 0.00 | 0.00 | 0.00 | 99 | 1016.0 |
| 20260906122527 | 20 | 12 | 0.0 | 0.0 | 0.00 | 0.00 | 0.00 | 99 | 1015.9 |
| 20260906122024 | 20 | 46 | 0.0 | 0.0 | 0.00 | 0.00 | 0.00 | 99 | 1015.7 |
| 20260906121520 | 20 | 45 | 0.0 | 0.0 | 0.00 | 0.00 | 0.00 | 99 | 1015.8 |
| 20260906121015 | 20 | 46 | 0.0 | 0.0 | 0.00 | 0.00 | 0.00 | 99 | 1015.6 |
| 20260906120510 | 20 | 46 | 0.0 | 0.0 | 0.00 | 0.00 | 0.00 | 99 | 1015.5 |
| 20260906120007 | 20 | 46 | 0.0 | 0.0 | 0.00 | 0.00 | 0.00 | 99 | 1015.5 |
| 20260906115501 | 20 | 45 | 0.0 | 0.0 | 0.00 | 0.00 | 0.00 | 99 | 1015.5 |
| 20260906114955 | 20 | 45 | 0.0 | 0.0 | 0.00 | 0.00 | 0.00 | 99 | 1015.3 |
| 20260906114450 | 20 | 45 | 0.0 | 0.0 | 0.00 | 0.00 | 0.00 | 99 | 1015.4 |
| 20260906113946 | 20 | 45 | 0.0 | 0.0 | 0.00 | 0.00 | 0.00 | 99 | 1015.3 |
| 20260906113445 | 20 | 45 | 0.0 | 0.0 | 0.00 | 0.00 | 0.00 | 99 | 1015.2 |
| 20260906112940 | 20 | 45 | 0.0 | 0.0 | 0.00 | 0.00 | 0.00 | 99 | 1014.9 |
| 20260906112436 | 20 | 45 | 0.0 | 0.0 | 0.00 | 0.00 | 0.00 | 99 | 1015.1 |
| 20260906111931 | 20 | 45 | 0.0 | 0.0 | 0.00 | 0.00 | 0.00 | 99 | 1015.1 |
| 20260906111431 | 20 | 45 | 0.0 | 0.0 | 0.00 | 0.00 | 0.00 | 99 | 1014.9 |
| 20260906110925 | 20 | 37 | 0.0 | 0.0 | 0.00 | 0.00 | 0.00 | 99 | 1014.8 |
| 20260906110421 | 20 | 7 | 0.0 | 0.0 | 0.00 | 0.00 | 0.00 | 99 | 1014.9 |
| 20260906105920 | 20 | 7 | 0.0 | 0.0 | 0.00 | 0.00 | 0.00 | 99 | 1014.6 |
| 20260906105416 | 20 | 7 | 0.0 | 0.0 | 0.00 | 0.00 | 0.00 | 99 | 1014.5 |
| 20260906104912 | 20 | 7 | 0.0 | 0.0 | 0.00 | 0.00 | 0.00 | 99 | 1014.5 |
| 20260906104410 | 20 | 7 | 0.0 | 0.0 | 0.00 | 0.00 | 0.00 | 99 | 1014.5 |
| 20260906103909 | 20 | 15 | 0.0 | 0.0 | 0.00 | 0.00 | 0.00 | 99 | 1014.4 |
| 20260906103407 | 20 | 43 | 0.0 | 0.0 | 0.00 | 0.00 | 0.00 | 99 | 1014.3 |
| 20260906102904 | 20 | 43 | 0.0 | 0.0 | 0.00 | 0.00 | 0.00 | 99 | 1014.1 |
| 20260906102402 | 20 | 30 | 0.0 | 0.0 | 0.00 | 0.00 | 0.00 | 99 | 1014.2 |
| 20260906101857 | 20 | 87 | 0.0 | 0.0 | 0.00 | 0.00 | 0.00 | 99 | 1014.4 |
| 20260906101353 | 20 | 87 | 0.0 | 0.0 | 0.00 | 0.00 | 0.00 | 99 | 1014.2 |
| 20260906100848 | 20 | 87 | 0.0 | 0.0 | 0.00 | 0.00 | 0.00 | 99 | 1014.2 |
| 20260906100347 | 20 | 87 | 0.0 | 0.0 | 0.00 | 0.00 | 0.00 | 99 | 1014.0 |
| 20260906095842 | 20 | 87 | 0.0 | 0.0 | 0.00 | 0.00 | 0.00 | 99 | 1014.2 |
| 20260906095338 | 20 | 87 | 0.0 | 0.0 | 0.00 | 0.00 | 0.00 | 99 | 1014.4 |
| 20260906094837 | 20 | 87 | 0.0 | 0.0 | 0.00 | 0.00 | 0.00 | 99 | 1014.2 |
| 20260906094332 | 20 | 87 | 0.0 | 0.0 | 0.00 | 0.00 | 0.00 | 99 | 1014.1 |
| 20260906093829 | 20 | 87 | 0.0 | 0.0 | 0.00 | 0.00 | 0.00 | 99 | 1014.4 |
| 20260906093324 | 20 | 87 | 0.0 | 0.0 | 0.00 | 0.00 | 0.00 | 99 | 1014.4 |
| 20260906092819 | 20 | 87 | 0.0 | 0.0 | 0.00 | 0.00 | 0.00 | 99 | 1014.3 |
| 20260906092314 | 20 | 87 | 0.0 | 0.0 | 0.00 | 0.00 | 0.00 | 99 | 1014.2 |
| 20260906091810 | 20 | 87 | 0.0 | 0.0 | 0.00 | 0.00 | 0.00 | 99 | 1014.3 |
| 20260906091306 | 20 | 87 | 0.0 | 0.0 | 0.00 | 0.00 | 0.00 | 99 | 1014.4 |
| 20260906090802 | 20 | 87 | 0.0 | 0.0 | 0.00 | 0.00 | 0.00 | 99 | 1014.1 |
| 20260906090301 | 20 | 87 | 0.0 | 0.0 | 0.00 | 0.00 | 0.00 | 99 | 1014.2 |
| 20260906085800 | 20 | 87 | 0.0 | 0.0 | 0.00 | 0.00 | 0.00 | 99 | 1014.3 |
| 20260906085259 | 20 | 87 | 0.0 | 0.0 | 0.00 | 0.00 | 0.00 | 99 | 1014.4 |
| 20260906084749 | 20 | 87 | 0.0 | 0.0 | 0.00 | 0.00 | 0.00 | 99 | 1014.2 |
| 20260906084248 | 20 | 87 | 0.0 | 0.0 | 0.00 | 0.00 | 0.00 | 99 | 1014.1 |
| 20260906083743 | 20 | 87 | 0.0 | 0.0 | 0.00 | 0.00 | 0.00 | 99 | 1014.1 |
| 20260906083238 | 20 | 87 | 0.0 | 0.0 | 0.00 | 0.00 | 0.00 | 99 | 1014.3 |
| 20260906082733 | 20 | 87 | 0.0 | 0.0 | 0.00 | 0.00 | 0.00 | 99 | 1014.1 |
| 20260906082228 | 20 | 87 | 0.0 | 0.0 | 0.00 | 0.00 | 0.00 | 99 | 1014.2 |
| 20260906081724 | 20 | 87 | 0.0 | 0.0 | 0.00 | 0.00 | 0.00 | 99 | 1014.2 |
| 20260906081219 | 20 | 87 | 0.0 | 0.0 | 0.00 | 0.00 | 0.00 | 99 | 1014.0 |
| 20260906080716 | 20 | 87 | 0.0 | 0.0 | 0.00 | 0.00 | 0.00 | 99 | 1014.2 |
| 20260906080212 | 20 | 87 | 0.0 | 0.0 | 0.00 | 0.00 | 0.00 | 99 | 1014.1 |
| 20260906075711 | 20 | 87 | 0.0 | 0.0 | 0.00 | 0.00 | 0.00 | 99 | 1013.9 |
| 20260906075206 | 20 | 87 | 0.0 | 0.0 | 0.00 | 0.00 | 0.00 | 99 | 1014.0 |
| 20260906074701 | 20 | 87 | 0.0 | 0.0 | 0.00 | 0.00 | 0.00 | 99 | 1013.9 |
| 20260906074200 | 20 | 87 | 0.0 | 0.0 | 0.00 | 0.00 | 0.00 | 99 | 1014.0 |
| 20260906073655 | 20 | 87 | 0.0 | 0.0 | 0.00 | 0.00 | 0.00 | 99 | 1014.0 |
| 20260906073146 | 20 | 87 | 0.0 | 0.0 | 0.00 | 0.00 | 0.00 | 99 | 1014.1 |
| 20260906072640 | 20 | 87 | 0.0 | 0.0 | 0.00 | 0.00 | 0.00 | 99 | 1014.1 |
| 20260906072136 | 20 | 87 | 0.0 | 0.0 | 0.00 | 0.00 | 0.00 | 99 | 1014.3 |
| 20260906071632 | 20 | 87 | 0.0 | 0.0 | 0.00 | 0.00 | 0.00 | 99 | 1014.2 |
| 20260906071132 | 20 | 87 | 0.0 | 0.0 | 0.00 | 0.00 | 0.00 | 99 | 1014.3 |
| 20260906070629 | 20 | 87 | 0.0 | 0.0 | 0.00 | 0.00 | 0.00 | 99 | 1014.2 |
| 20260906070124 | 20 | 87 | 0.0 | 0.0 | 0.00 | 0.00 | 0.00 | 99 | 1014.2 |
| 20260906065623 | 20 | 87 | 0.0 | 0.0 | 0.00 | 0.00 | 0.00 | 99 | 1014.4 |
| 20260906065119 | 20 | 87 | 0.0 | 0.0 | 0.00 | 0.00 | 0.00 | 99 | 1014.3 |
| 20260906064614 | 20 | 87 | 0.0 | 0.0 | 0.00 | 0.00 | 0.00 | 99 | 1014.5 |
| 20260906064109 | 20 | 87 | 0.0 | 0.0 | 0.00 | 0.00 | 0.00 | 99 | 1014.3 |
| 20260906063604 | 20 | 87 | 0.0 | 0.0 | 0.00 | 0.00 | 0.00 | 99 | 1014.5 |
| 20260906063100 | 20 | 87 | 0.0 | 0.0 | 0.00 | 0.00 | 0.00 | 99 | 1014.4 |
| 20260906062556 | 20 | 87 | 0.0 | 0.0 | 0.00 | 0.00 | 0.00 | 99 | 1014.2 |
| 20260906062055 | 20 | 87 | 0.0 | 0.0 | 0.00 | 0.00 | 0.00 | 99 | 1014.3 |
| 20260906061551 | 20 | 87 | 0.0 | 0.0 | 0.00 | 0.00 | 0.00 | 99 | 1014.0 |
| 20260906061050 | 20 | 87 | 0.0 | 0.0 | 0.00 | 0.00 | 0.00 | 99 | 1014.3 |
| 20260906060547 | 20 | 87 | 0.0 | 0.0 | 0.00 | 0.00 | 0.00 | 99 | 1014.1 |
| 20260906060044 | 20 | 87 | 0.0 | 0.0 | 0.00 | 0.00 | 0.00 | 99 | 1014.1 |
| 20260906055540 | 20 | 87 | 0.0 | 0.0 | 0.00 | 0.00 | 0.00 | 99 | 1014.2 |
| 20260906055036 | 20 | 87 | 0.0 | 0.0 | 0.00 | 0.00 | 0.00 | 99 | 1014.1 |
| 20260906054535 | 20 | 87 | 0.0 | 0.0 | 0.00 | 0.00 | 0.00 | 99 | 1014.1 |
| 20260906054031 | 20 | 87 | 0.0 | 0.0 | 0.00 | 0.00 | 0.00 | 99 | 1014.2 |
| 20260906053527 | 20 | 87 | 0.0 | 0.0 | 0.00 | 0.00 | 0.00 | 99 | 1014.0 |
| 20260906053022 | 20 | 87 | 0.0 | 0.0 | 0.00 | 0.00 | 0.00 | 99 | 1013.9 |
| 20260906052518 | 20 | 87 | 0.0 | 0.0 | 0.00 | 0.00 | 0.00 | 99 | 1013.9 |
| 20260906052015 | 20 | 87 | 0.0 | 0.0 | 0.00 | 0.00 | 0.00 | 99 | 1014.0 |
| 20260906051511 | 20 | 87 | 0.0 | 0.0 | 0.00 | 0.00 | 0.00 | 99 | 1014.0 |
| 20260906051006 | 20 | 87 | 0.0 | 0.0 | 0.00 | 0.00 | 0.00 | 99 | 1014.0 |
| 20260906050506 | 20 | 87 | 0.0 | 0.0 | 0.00 | 0.00 | 0.00 | 99 | 1014.0 |
| 20260906050000 | 20 | 87 | 0.0 | 0.0 | 0.00 | 0.00 | 0.00 | 99 | 1014.3 |
| 20260906045459 | 20 | 87 | 0.0 | 0.0 | 0.00 | 0.00 | 0.00 | 99 | 1014.3 |
| 20260906044954 | 20 | 87 | 0.0 | 0.0 | 0.00 | 0.00 | 0.00 | 99 | 1014.3 |
| 20260906044449 | 20 | 87 | 0.0 | 0.0 | 0.00 | 0.00 | 0.00 | 99 | 1014.2 |
| 20260906043945 | 20 | 87 | 0.0 | 0.0 | 0.00 | 0.00 | 0.00 | 99 | 1014.0 |
| 20260906043440 | 20 | 87 | 0.0 | 0.0 | 0.00 | 0.00 | 0.00 | 99 | 1014.1 |
| 20260906042936 | 20 | 87 | 0.0 | 0.0 | 0.00 | 0.00 | 0.00 | 99 | 1014.2 |
| 20260906042435 | 20 | 87 | 0.0 | 0.0 | 0.00 | 0.00 | 0.00 | 99 | 1014.1 |
| 20260906041930 | 20 | 87 | 0.0 | 0.0 | 0.00 | 0.00 | 0.00 | 99 | 1014.2 |
| 20260906041426 | 20 | 87 | 0.0 | 0.0 | 0.00 | 0.00 | 0.00 | 99 | 1014.3 |
| 20260906040926 | 20 | 87 | 0.0 | 0.0 | 0.00 | 0.00 | 0.00 | 99 | 1014.1 |
| 20260906040421 | 20 | 87 | 0.0 | 0.0 | 0.00 | 2.18 | 2.18 | 99 | 1014.1 |
| 20260906035916 | 20 | 87 | 0.0 | 0.0 | 0.00 | 2.18 | 2.18 | 99 | 1014.3 |
| 20260906035412 | 20 | 87 | 0.0 | 0.0 | 0.00 | 2.18 | 2.18 | 99 | 1014.2 |
| 20260906034907 | 20 | 87 | 0.0 | 0.0 | 0.00 | 2.18 | 2.18 | 99 | 1014.2 |
| 20260906034401 | 20 | 87 | 0.0 | 0.0 | 0.00 | 2.18 | 2.18 | 99 | 1014.2 |
| 20260906033857 | 20 | 87 | 0.0 | 0.0 | 0.00 | 2.18 | 2.18 | 99 | 1014.2 |
| 20260906033357 | 20 | 87 | 0.0 | 0.0 | 0.00 | 2.18 | 2.18 | 99 | 1014.3 |
| 20260906032853 | 20 | 87 | 0.0 | 0.0 | 0.00 | 2.18 | 2.18 | 99 | 1014.2 |
| 20260906032349 | 20 | 87 | 0.0 | 0.0 | 0.00 | 2.18 | 2.18 | 99 | 1014.4 |
| 20260906031844 | 20 | 87 | 0.0 | 0.0 | 0.00 | 2.18 | 2.18 | 99 | 1014.6 |
| 20260906031339 | 21 | 87 | 0.0 | 0.0 | 0.00 | 2.18 | 2.18 | 99 | 1014.5 |
| 20260906030839 | 21 | 87 | 0.0 | 0.0 | 0.00 | 2.18 | 2.18 | 99 | 1014.5 |
| 20260906030334 | 21 | 87 | 0.0 | 0.0 | 0.00 | 2.18 | 2.18 | 99 | 1014.6 |
| 20260906025829 | 21 | 87 | 0.0 | 0.0 | 0.00 | 2.18 | 2.18 | 99 | 1014.4 |
| 20260906025323 | 21 | 87 | 0.0 | 0.0 | 0.00 | 2.18 | 2.18 | 99 | 1014.9 |
| 20260906024822 | 21 | 87 | 0.0 | 0.0 | 0.00 | 2.18 | 2.18 | 99 | 1014.8 |
| 20260906024321 | 21 | 87 | 0.0 | 0.0 | 0.00 | 2.18 | 2.18 | 99 | 1014.6 |
| 20260906023817 | 21 | 87 | 0.0 | 0.0 | 0.00 | 2.18 | 2.18 | 99 | 1014.4 |
| 20260906023313 | 21 | 87 | 0.0 | 0.0 | 0.00 | 2.18 | 2.18 | 99 | 1014.4 |
| 20260906022808 | 21 | 87 | 0.0 | 0.0 | 0.00 | 2.18 | 2.18 | 99 | 1014.5 |
| 20260906022306 | 21 | 87 | 0.0 | 0.0 | 0.00 | 2.18 | 2.18 | 99 | 1014.4 |
| 20260906021759 | 21 | 87 | 0.0 | 0.0 | 0.00 | 2.18 | 2.18 | 99 | 1014.4 |
| 20260906021258 | 21 | 87 | 0.0 | 0.0 | 0.00 | 2.18 | 2.18 | 99 | 1014.5 |
| 20260906020752 | 21 | 88 | 0.0 | 0.0 | 0.00 | 2.18 | 2.18 | 99 | 1014.2 |
| 20260906020246 | 21 | 88 | 0.0 | 0.0 | 0.00 | 2.18 | 2.18 | 99 | 1013.9 |
| 20260906015741 | 21 | 88 | 0.0 | 0.0 | 0.00 | 2.18 | 2.18 | 99 | 1014.1 |
| 20260906015239 | 21 | 88 | 0.0 | 0.0 | 0.00 | 2.18 | 2.18 | 99 | 1014.1 |
| 20260906014734 | 21 | 88 | 0.0 | 0.0 | 0.00 | 2.18 | 2.18 | 99 | 1014.3 |
| 20260906014230 | 21 | 88 | 0.0 | 0.0 | 0.00 | 2.18 | 2.18 | 99 | 1014.3 |
| 20260906013726 | 21 | 88 | 0.0 | 0.0 | 0.13 | 2.18 | 2.18 | 99 | 1014.2 |
| 20260906013221 | 21 | 88 | 0.0 | 0.0 | 0.13 | 2.18 | 2.18 | 99 | 1014.4 |
| 20260906012715 | 21 | 88 | 0.0 | 0.0 | 0.18 | 2.16 | 2.16 | 99 | 1014.1 |
| 20260906012210 | 21 | 90 | 0.0 | 0.0 | 1.85 | 2.16 | 2.16 | 99 | 1014.2 |
| 20260906011705 | 21 | 91 | 0.0 | 0.0 | 2.87 | 2.13 | 2.13 | 99 | 1014.3 |
| 20260906011200 | 21 | 93 | 0.0 | 0.0 | 1.27 | 1.78 | 1.78 | 99 | 1014.1 |
| 20260906010655 | 22 | 187 | 0.0 | 0.0 | 0.48 | 1.60 | 1.60 | 99 | 1013.9 |
| 20260906010152 | 22 | 72 | 0.0 | 0.0 | 0.89 | 1.57 | 1.57 | 99 | 1013.7 |
| 20260906005651 | 22 | 70 | 0.0 | 0.0 | 0.89 | 1.52 | 1.52 | 99 | 1014.0 |
| 20260906005151 | 22 | 8 | 0.0 | 0.0 | 0.89 | 1.42 | 1.42 | 98 | 1013.9 |
| 20260906004649 | 22 | 1 | 0.0 | 0.0 | 1.07 | 1.37 | 1.37 | 98 | 1013.9 |
| 20260906004144 | 22 | 33 | 0.0 | 0.0 | 1.37 | 1.27 | 1.27 | 98 | 1013.5 |
| 20260906003640 | 22 | 51 | 0.0 | 0.0 | 0.89 | 1.19 | 1.19 | 97 | 1013.8 |
| 20260906003136 | 22 | 355 | 3.2 | 9.7 | 0.00 | 1.04 | 1.04 | 96 | 1013.6 |
| 20260906002630 | 22 | 222 | 0.0 | 0.0 | 0.00 | 1.04 | 1.04 | 97 | 1013.1 |
| 20260906002125 | 22 | 222 | 0.0 | 0.0 | 0.00 | 1.04 | 1.04 | 97 | 1013.1 |
| 20260906001621 | 22 | 222 | 0.0 | 0.0 | 0.00 | 1.04 | 1.04 | 97 | 1013.0 |
| 20260906001120 | 22 | 222 | 0.0 | 0.0 | 0.00 | 1.04 | 1.04 | 97 | 1012.9 |
| 20260906000616 | 22 | 222 | 0.0 | 0.0 | 0.00 | 1.04 | 1.04 | 97 | 1012.8 |
| 20260906000112 | 22 | 222 | 0.0 | 0.0 | 0.00 | 1.04 | 1.04 | 97 | 1013.1 |
| 20260905235610 | 22 | 222 | 0.0 | 0.0 | 0.00 | 1.04 | 1.04 | 96 | 1013.0 |
| 20260905235106 | 22 | 222 | 0.0 | 0.0 | 0.00 | 1.04 | 1.04 | 96 | 1013.0 |
| 20260905234601 | 22 | 222 | 0.0 | 0.0 | 0.00 | 1.04 | 1.04 | 95 | 1013.0 |
| 20260905234056 | 23 | 222 | 0.0 | 0.0 | 0.00 | 1.04 | 1.04 | 94 | 1013.1 |
| 20260905233556 | 23 | 222 | 0.0 | 0.0 | 0.00 | 1.04 | 1.04 | 93 | 1012.9 |
| 20260905233051 | 23 | 222 | 0.0 | 0.0 | 0.00 | 1.04 | 1.04 | 92 | 1012.7 |
| 20260905232546 | 23 | 223 | 0.0 | 0.0 | 0.00 | 1.04 | 1.04 | 91 | 1012.9 |
| 20260905232041 | 24 | 223 | 0.0 | 0.0 | 0.00 | 1.04 | 1.04 | 90 | 1013.0 |
| 20260905231537 | 24 | 217 | 0.0 | 0.0 | 0.00 | 1.04 | 1.04 | 90 | 1013.0 |
| 20260905231033 | 24 | 217 | 0.0 | 0.0 | 0.00 | 1.04 | 1.04 | 90 | 1012.9 |
| 20260905230532 | 25 | 218 | 0.0 | 0.0 | 0.00 | 1.04 | 1.04 | 88 | 1013.1 |
| 20260905230030 | 25 | 218 | 0.0 | 0.0 | 0.00 | 1.04 | 1.04 | 88 | 1012.9 |
| 20260905225525 | 25 | 218 | 0.0 | 0.0 | 0.00 | 1.04 | 1.04 | 86 | 1013.0 |
| 20260905225020 | 25 | 218 | 0.0 | 0.0 | 0.00 | 1.04 | 1.04 | 86 | 1012.9 |
| 20260905224515 | 26 | 219 | 0.0 | 0.0 | 0.00 | 1.04 | 1.04 | 85 | 1012.9 |
| 20260905224015 | 26 | 231 | 0.0 | 0.0 | 0.00 | 1.04 | 1.04 | 84 | 1013.0 |
| 20260905223513 | 27 | 235 | 0.0 | 0.0 | 0.00 | 1.04 | 1.04 | 79 | 1013.0 |
| 20260905223008 | 27 | 270 | 0.0 | 0.0 | 0.00 | 1.04 | 1.04 | 75 | 1013.0 |
| 20260905222507 | 28 | 251 | 0.0 | 0.0 | 0.00 | 1.04 | 1.04 | 72 | 1012.9 |
| 20260905222002 | 28 | 276 | 0.0 | 0.0 | 0.00 | 1.04 | 1.04 | 71 | 1013.0 |
| 20260905221459 | 28 | 250 | 0.0 | 0.0 | 0.00 | 1.04 | 1.04 | 71 | 1013.1 |
| 20260905220955 | 28 | 3 | 0.0 | 0.0 | 0.00 | 1.04 | 1.04 | 69 | 1012.9 |
| 20260905220451 | 28 | 271 | 0.0 | 0.0 | 0.00 | 1.04 | 1.04 | 69 | 1013.0 |
| 20260905215949 | 28 | 322 | 0.0 | 0.0 | 0.00 | 1.04 | 1.04 | 68 | 1013.1 |
| 20260905215446 | 28 | 4 | 0.0 | 0.0 | 0.00 | 1.04 | 1.04 | 67 | 1012.9 |
| 20260905214942 | 28 | 22 | 0.0 | 0.0 | 0.00 | 1.04 | 1.04 | 71 | 1012.9 |
| 20260905214437 | 28 | 276 | 0.0 | 0.0 | 0.00 | 1.04 | 1.04 | 71 | 1012.9 |
| 20260905213937 | 28 | 249 | 0.0 | 0.0 | 0.00 | 1.04 | 1.04 | 71 | 1012.8 |
| 20260905213434 | 28 | 243 | 0.0 | 0.0 | 0.00 | 1.04 | 1.04 | 68 | 1012.8 |
| 20260905212928 | 28 | 253 | 0.0 | 0.0 | 0.00 | 1.04 | 1.04 | 68 | 1012.8 |
| 20260905212423 | 28 | 246 | 0.0 | 0.0 | 0.00 | 1.04 | 1.04 | 68 | 1012.7 |
| 20260905211922 | 28 | 11 | 0.0 | 0.0 | 0.00 | 1.04 | 1.04 | 66 | 1012.5 |
| 20260905211418 | 28 | 345 | 0.0 | 0.0 | 0.00 | 1.04 | 1.04 | 69 | 1012.5 |
| 20260905210914 | 28 | 262 | 0.0 | 0.0 | 0.00 | 1.04 | 1.04 | 74 | 1012.5 |
| 20260905210409 | 28 | 303 | 0.0 | 0.0 | 0.00 | 1.04 | 1.04 | 70 | 1012.5 |
| 20260905205908 | 28 | 301 | 0.0 | 0.0 | 0.00 | 1.04 | 1.04 | 69 | 1012.7 |
| 20260905205357 | 28 | 293 | 0.0 | 0.0 | 0.00 | 1.04 | 1.04 | 71 | 1012.6 |
| 20260905204856 | 28 | 265 | 0.0 | 0.0 | 0.00 | 1.04 | 1.04 | 67 | 1012.8 |
| 20260905204352 | 28 | 265 | 0.0 | 0.0 | 0.00 | 1.04 | 1.04 | 66 | 1012.8 |
| 20260905203845 | 28 | 347 | 0.0 | 0.0 | 0.00 | 1.04 | 1.04 | 71 | 1012.9 |
| 20260905203341 | 28 | 4 | 0.0 | 0.0 | 0.00 | 1.04 | 1.04 | 68 | 1013.0 |
| 20260905202837 | 27 | 23 | 0.0 | 0.0 | 0.00 | 1.04 | 1.04 | 71 | 1013.1 |
| 20260905202331 | 28 | 358 | 0.0 | 0.0 | 0.00 | 1.04 | 1.04 | 72 | 1012.9 |
| 20260905201827 | 28 | 307 | 0.0 | 0.0 | 0.00 | 1.04 | 1.04 | 71 | 1013.0 |
| 20260905201322 | 28 | 300 | 0.0 | 0.0 | 0.00 | 1.04 | 1.04 | 66 | 1012.9 |
| 20260905200822 | 28 | 34 | 0.0 | 0.0 | 0.00 | 1.04 | 1.04 | 69 | 1012.9 |
| 20260905200318 | 27 | 69 | 0.0 | 0.0 | 0.00 | 1.04 | 1.04 | 72 | 1013.0 |
| 20260905195815 | 27 | 9 | 0.0 | 0.0 | 0.00 | 1.04 | 1.04 | 70 | 1013.2 |
| 20260905195311 | 27 | 34 | 0.0 | 0.0 | 0.00 | 1.04 | 1.04 | 76 | 1013.3 |
| 20260905194807 | 27 | 39 | 0.0 | 0.0 | 0.00 | 1.04 | 1.04 | 73 | 1013.1 |
| 20260905194307 | 28 | 20 | 0.0 | 0.0 | 0.00 | 1.04 | 1.04 | 71 | 1013.3 |
| 20260905193806 | 28 | 244 | 0.0 | 0.0 | 0.00 | 1.04 | 1.04 | 67 | 1013.5 |
| 20260905193302 | 28 | 297 | 0.0 | 0.0 | 0.00 | 1.04 | 1.04 | 71 | 1013.6 |
| 20260905192757 | 28 | 241 | 0.0 | 0.0 | 0.00 | 1.04 | 1.04 | 68 | 1013.9 |
| 20260905192253 | 28 | 246 | 0.0 | 0.0 | 0.00 | 1.04 | 1.04 | 67 | 1013.7 |
| 20260905191752 | 28 | 291 | 0.0 | 0.0 | 0.00 | 1.04 | 1.04 | 73 | 1013.8 |
| 20260905191250 | 28 | 295 | 0.0 | 0.0 | 0.00 | 1.04 | 1.04 | 70 | 1013.7 |
| 20260905190749 | 27 | 299 | 0.0 | 0.0 | 0.00 | 1.04 | 1.04 | 69 | 1013.7 |
| 20260905190248 | 28 | 260 | 0.0 | 0.0 | 0.00 | 1.04 | 1.04 | 70 | 1013.9 |
| 20260905185747 | 28 | 260 | 0.0 | 0.0 | 0.00 | 1.04 | 1.04 | 69 | 1013.8 |
| 20260905185243 | 28 | 241 | 0.0 | 0.0 | 0.00 | 1.04 | 1.04 | 72 | 1014.1 |
| 20260905184736 | 27 | 303 | 0.0 | 0.0 | 0.00 | 1.04 | 1.04 | 73 | 1014.1 |
| 20260905184236 | 27 | 296 | 0.0 | 0.0 | 0.00 | 1.04 | 1.04 | 77 | 1014.2 |
| 20260905183735 | 28 | 249 | 0.0 | 0.0 | 0.00 | 1.04 | 1.04 | 70 | 1014.1 |
| 20260905183231 | 28 | 262 | 0.0 | 0.0 | 0.00 | 1.04 | 1.04 | 67 | 1014.3 |
| 20260905182724 | 27 | 221 | 0.0 | 0.0 | 0.00 | 1.04 | 1.04 | 69 | 1014.2 |
| 20260905182224 | 27 | 284 | 0.0 | 0.0 | 0.00 | 1.04 | 1.04 | 77 | 1014.1 |
| 20260905181719 | 26 | 274 | 0.0 | 0.0 | 0.00 | 1.04 | 1.04 | 75 | 1014.2 |
| 20260905181218 | 26 | 344 | 0.0 | 0.0 | 0.00 | 1.04 | 1.04 | 76 | 1014.1 |
| 20260905180713 | 27 | 56 | 0.0 | 0.0 | 0.00 | 1.04 | 1.04 | 73 | 1014.2 |
| 20260905180209 | 27 | 163 | 0.0 | 0.0 | 0.00 | 1.04 | 1.04 | 74 | 1014.1 |
| 20260905175708 | 27 | 143 | 0.0 | 0.0 | 0.00 | 1.04 | 1.04 | 72 | 1014.2 |
| 20260905175203 | 27 | 121 | 0.0 | 0.0 | 0.00 | 1.04 | 1.04 | 74 | 1014.3 |
| 20260905174658 | 27 | 74 | 0.0 | 0.0 | 0.00 | 1.04 | 1.04 | 78 | 1014.4 |
| 20260905174154 | 27 | 307 | 0.0 | 0.0 | 0.00 | 1.04 | 1.04 | 73 | 1014.4 |
| 20260905173651 | 27 | 251 | 0.0 | 0.0 | 0.00 | 1.04 | 1.04 | 72 | 1014.4 |
| 20260905173146 | 27 | 261 | 0.0 | 0.0 | 0.00 | 1.04 | 1.04 | 72 | 1014.6 |
| 20260905172645 | 27 | 352 | 0.0 | 0.0 | 0.00 | 1.04 | 1.04 | 71 | 1014.7 |
| 20260905172145 | 26 | 298 | 0.0 | 0.0 | 0.00 | 1.04 | 1.04 | 75 | 1014.7 |